Погода в Среднеколымске

Погода в Среднеколымске : погода сейчас, прогноз погоды и архив. Всё, что Вы хотите узнать о погоде в Среднеколымске!

Поиск расширенной информации на нашем сайте:

Другие новости

Новости СМИ2

Главная страница сайта

Новости сайта

03.07.2017

Напоминаем, что на нашем специализированном сайте Метеоцентр.Азия вы можете получить высокодетализированные автоматические прогнозы погоды по пунктам России, СНГ и мира в авиационном формате (включающие направление и скорость ветра, видимость, явления погоды, количество и форму облачности, нижнюю и верхнюю границу облачности).

Рекомендуем: Смотрите описание strategic-broker.com у нас.

Погода в Среднеколымске - сегодня

Время (UTC), дата Ветер
(°,м/с) 
Видим.   Явления Облачность Т
(°С)
Тd
(°С)
f(%) Тe
(°С)
Pmin
(гПа)
dP
(гПа)
Po
(мм)
O2
(г/м3)
Тmin Tmax R s Состояние
почвы
18 21.07.17 050 (СВ) 20000 м    10/10 600 м кучево-дожд. 
[Cb cap]
+9.9 +7.6 86 +9  1011.9  -0.7  756  293           
21 21.07.17 050 (СВ) 20000 м    10/10 600 м кучево-дожд. 
[Cb cap]
+10.3 +6.2 76 +10  1010.9  -1  755  292  +9.1        влажная 
00 22.07.17 060 (СВ) 20000 м  слаб. ливневой дождь  10/10 600 м кучево-дожд. 
[Cb cap]
+10.3   1009.8  -1.1  755             
03 22.07.17 060 (СВ) 20000 м  слаб. ливневой дождь  9/8 600 м кучево-дожд., верхняя 
[Cb cap|Ci fib]
+10.8 +7.7 81 +10  1008.4  -1.4  753  291           
06 22.07.17 070 (В) 20000 м  {ливн. осадки}  9/9 600 м кучево-дожд. 
[Cb cap]
+11.9 +7.4 74 +12  1006.8  -1.5  752  289           
09 22.07.17 100 (В) 20000 м    9/8 600 м кучево-дожд., верхняя 
[Cb cap|Ci fib]
+7.2   1006.1  -0.7  752      +12.2  0.0     
12 22.07.17 тихо ()   20000 м    5/3 1000 м верхняя 
[Sc|Ci fib]
+10.4 +8.4 87 +10  1005.1  -1.1  751  290           
15 22.07.17 тихо ()   20000 м    8/0 средняя, верхняя 
[Ac trans|Ci fib]
+5.5 +4.1 91 +6  1005.3  0.2  751  296           
18 22.07.17 310 (СЗ) 20000 м    4/0 средняя, верхняя 
[Ac trans|Ci fib]
+4.9 +3.7 92 +6  1003.1  -2.2  749  296           
21 22.07.17 280 (З) 20000 м    8/0 средняя, верхняя 
[Ac trans|Ci fib]
+11.7 +6.7 71 +13  1002.2  -0.8  749  288  +4.2        влажная 
00 23.07.17 310 (СЗ) 20000 м    8/4 1000 м верхняя 
[Sc|Ci fib]
+14.2 +4.5 52 +15  1000.9  -1.3  748  286           
03 23.07.17 280 (З) 20000 м    8/6 1000 м верхняя 
[Sc|Ci fib]
+16.2 +3.7 43 +17  999.9  -1  747  284           
06 23.07.17 340 (С) 20000 м    9/8 1000 м верхняя 
[Sc|Ci fib]
+16.7 +4.7 45 +18  999  -0.8  747  283           
09 23.07.17 340 (С) 20000 м    9/8 1000 м кучево-дожд., верхняя 
[Cb cap|Ci fib]
+17.1 +5.4 46 +18  999.1  0.1  747  282    +17.7       
12 23.07.17 тихо ()   20000 м    9/8 1000 м кучево-дожд., верхняя 
[Cb cap|Ci fib]
+13.5 +8.1 70 +14  999.7  0.5  747  285           
15 23.07.17 тихо ()   20000 м    9/8 1000 м кучево-дожд., средняя 
[Cb cap|Ac trans]
+10.8 +9.2 90 +11  999.8  747  288           
18 23.07.17 тихо ()   20000 м  в посл. час ливневой дождь  9/8 1000 м кучево-дожд., средняя 
[Cb cap|Ac trans]
+10.2 +9.4 95 +11  1000.5  0.7  748  289           
21 23.07.17 220 (ЮЗ) 20000 м  в посл. час ливневой дождь  9/8 1000 м кучево-дожд., средняя 
[Cb cap|Ac trans]
+11.2 +10.6 96 +13  1001.9  1.5  749  288  +10      влажная 
00 24.07.17 330 (СЗ) 20000 м  {ливн. осадки}  10/10 300 м кучево-дожд. 
[Cb cap]
+8.9 +7.2 89 +7  1004.9  2.9  751  292           
03 24.07.17 290 (З) 20000 м  в посл. час ливневой дождь  9/8 300 м кучево-дожд., средняя 
[Cb cap|Ac trans]
+9.6 +7.1 84 +9  1007.7  2.8  753  292           
06 24.07.17 300 (СЗ) 20000 м  {ливн. осадки}  9/9 600 м кучево-дожд., средняя 
[Cb cap|Ac trans]
+10.2 +3.1 61 +9  1010.4  2.7  755  293           
09 24.07.17 290 (З) 20000 м    9/6 600 м кучево-дожд., средняя 
[Cb cap|Ac trans]
+10.6 +3.3 61 +10  1012.4  756  293    +11.5  0.3     
12 24.07.17 310 (СЗ) 20000 м    9/9 600 м кучево-дожд. 
[Cb cap]
+6.9 +4.1 82 +8  1014.4  1.9  758  297           
15 24.07.17 тихо ()   20000 м    9/9 600 м 
[Sc]
+5.8 +3.9 88 +6  1015.7  1.3  759  299           
18 24.07.17 190 (Ю) 20000 м    9/8 600 м кучево-дожд., верхняя 
[Cb cap|Ci fib]
+7.2 +5.2 87 +8  1016.5  0.9  760  297           
Время (UTC), дата Ветер
(°,м/с) 
Видим.   Явления Облачность Т
(°С)
Тd
(°С)
f(%) Тe
(°С)
Pmin
(гПа)
dP
(гПа)
Po
(мм)
O2
(г/м3)
Тmin Tmax R s Состояние
почвы

Для получения пояснительной информации подведите курсор к названию столбца.

ПОГОДА в Среднеколымске - архив

Всё, что Вы хотите узнать о погоде в Среднеколымске - удобно и подробно!

Выберите нужную дату (начиная с 1 января 2015* года) и нажмите кнопку "Найти".
Будут отображены архивные сводки погоды по пункту Среднеколымск, начиная с указанной даты.


Отображать данные в формате CSV (для использования в таблицах Excel)


Внимание! Наш архив погоды предназначен исключительно для личного некоммерческого использования в познавательных целях. Если Вам необходимы официальные справки о состоянии погоды (для производственных, юридических, коммерческих и т.п. целей), обращайтесь в органы Росгидромета.

*Примечание: данная дата относится к архиву по метеостанциям СССР (Россия, СНГ, Балтия).
Архив по метеостанциям Зарубежной Европы и Азии (кроме Китая) хранится 10 дней, по другим регионам земного шара (Китай, Африка, Америка, Австралия, Океания) - 1 день.

Среднеколымск - район местоположения метеостанции


Название, широта, долгота, высота метеостанции:
Среднеколымск 67.45°ш. 153°д. 21 м над ур. моря [Российская Федерация]

Дополнительная информация

В oтличие oт бoльшинства пoгoдных сайтoв мы публикуем пoдрoбную метеoинфoрмацию в детальнoм прoфессиoнальнoм фoрмате.

Характеристики температуры и влажнoсти вoздуха измеряются на высoте 2 м в тени вдали oт зданий и деревьев.
Скoрoсть ветра измеряется на высoте 10 м (на урoвне рoста челoвека скoрoсть ветра ниже в 1.5-2 раза). Если метеoстанция нахoдится в гoрoде или в лесу, тo скoрoсть ветра занижена на 2-4 м/с пo сравнению с oткрытым местoм. Скoрoсть ветра над акватoриями крупных рек и oзёр, а также на вершинах хoлмoв на 2-5 м/с выше, чем в oбычных услoвиях.
Атмoсфернoе давление в разных тoчках местнoсти мoжет значительнo oтличаться oт давления на метеoстанции, в зависимoсти oт услoвий рельефа (при пoдъёме на 10 м давление пoнижается примернo на 1 мм рт.ст.).